• EDLH
  • EDLH
  • EDLH
 

Herzlich willkommen


Der Luftsportclub Hamm e.V. betreibt seit über 50 Jahren den Flugplatz Hamm-Lippewiesen in nahezu einmaliger Innenstadtlage. In vier Sportgruppen gehen die mehr als 350 Mitglieder ihren Hobbys Motorflug, Segelflug, Ultraleichtflug und Ballonfahrt nach.

Wir freuen uns auf Ihren Besuch am Flugplatz Hamm – egal ob zu Fuß oder mit dem Flugzeug!

Fliegen lernen


Sie möchten gern Pilot werden? Dieser Traum kann bei uns in Erfüllung gehen!

Der Luftsportclub Hamm e.V. betreibt eine moderne, ständig gewartete Flugzeugflotte und bildet seit vielen Jahren preiswert und erfolgreich Piloten aus.

Wir würden uns freuen, auch Sie bald als neuen Flugschüler bei uns begrüßen zu dürfen.

Mehr zur Ausbildung

Flugplatzwetter

02 °C

EDLH 041700Z AUTO 05007KT 020V080 9000 OVC013 02/02 Q1016

Was ist das?

 

Live-Webcam

Was ist gerade am Flugplatz Hamm los? Finden Sie es heraus - mit unserer Live-Webcam!

 

Kamera öffnen

Wir benutzen Cookies

Wir nutzen Cookies auf unserer Website. Einige von ihnen sind essenziell für den Betrieb der Seite, während andere uns helfen, diese Website und die Nutzererfahrung zu verbessern (Tracking Cookies). Sie können selbst entscheiden, ob Sie die Cookies zulassen möchten. Bitte beachten Sie, dass bei einer Ablehnung womöglich nicht mehr alle Funktionalitäten der Seite zur Verfügung stehen.